IRIDIUM 33 DEB, 36083

Orbit data source: Space-Track

IRIDIUM 33 DEB, 36083 is space debris in LEO originally from a launch on Sun, 14 Sep 1997 UTC launched from the Tyuratam Missile And Space Complex (TTMTR). The debris from Iridium 33, an American commercial communications satellite, has been tracked extensively since its accidental collision with the defunct Russian satellite Cosmos 2251 in 2009. This event, occurring at high speed in low Earth orbit (LEO), generated thousands of pieces of space debris, significantly increasing the risk of further collisions. The Iridium 33 debris cloud has impacted space traffic management and orbital debris mitigation strategies, making it a subject of ongoing study in space situational awareness.

Loading next visibility...
Identifier
36083, 1997-051VQ
Orbit
LEO
Country
Flag of USUS
Related business
Manufacturer
Unknown
Mission
Spacecraft
Bus & Motor
Unknown
Mass
Unknown
Launch date (UTC)
1997-09-14 (28 years ago)
Launch vehicle
Unknown
Launch site
Tyuratam Missile And Space Complex (TTMTR)
Object type
Payload
Rocket body
Debris
Shape & HBR
Unknown shape, 0.1 m
Radar Cross Section
Small (<0.1 m²)

Expand to show TLE details & history
Last TLE update: 1 week ago

TLE from 1 week ago
0 IRIDIUM 33 DEB
1 36083U 97051VQ  25340.89753348  .00003337  00000-0  98433-3 0  9999
2 36083  86.3442  36.6683 0024789 243.3344 116.5319 14.43175138853654
Epoch: 2025-12-06T21:32Z
TLE epoch observation values (Epoch: 2025-12-06T21:32:26.892Z)
Latitude
0.00005°
Longitude
-2.36243°
Altitude
759.018 km
Speed
7.471 km/s
True Right ascension
02h 26m 40s
True Declination
0° 00' 00"
Sunlit
Object was in full shadow at epoch
Visualization orbit readout
Latitude
Unknown
Longitude
Unknown
Altitude
Unknown
Speed
Unknown
Apparent Right ascension
Unknown
Apparent Declination
Unknown
Sunlit
N/A
Visualization observer readout
Local Sidereal Time
22:12:04
Azimuth
Unknown
Elevation
Unknown
Doppler factor
Unknown
Orbital elements
Apogee altitude
762.637 km
Perigee altitude
727.322 km
Semi-major axis
7,123.117 km
Eccentricity
0.00248
Inclination
86.3442°
RAAN
36.6683°
Arg. of periapsis
243.3344°
True anomaly
116.78569°
Mean anomaly
116.5319°
Eccentric anomaly
116.65883°
Mean motion
3.61026 °/min
Orbital period
99.72 mins
BSTAR
0.00098433

Documentation

Showing up to 5 results
|